Location: Central Coast
(33.3208°S, 151.2336°E)
Time: 04:47:47
(UTC+11:00)

Envisat - Pass Details

Date: 16 October 2017
Orbit: 764 x 766 km, 98.2° (Epoch: 21 October)

Event Time Altitude Azimuth Distance (km) Brightness Sun altitude
Rises 20:16:13 0° 146° (SE) 3,263 6.1 -14.4°
Reaches altitude 10° 20:19:28 10° 124° (SE) 2,326 5.2 -15.0°
Enters shadow 20:20:44 14° 111° (ESE) 2,078 4.8 -15.2°
